Flag for U.S.A. Weather past 2 weeks in Cedar Rapids, Iowa, U.S.A.

Now
76 °F

Light rain. Overcast.


Feels Like: 77 °F
Forecast: 58 / 82 °F
Wind: No wind

Location: Cedar Rapids Municipal Airport

Current Time: Aug 1, 2014 at 9:01:45 PM

Latest Report: Aug 1, 2014 at 7:52 PM


Visibility: 10 mi

Pressure: 30.05 "Hg

Humidity: 77%

Dew point: 68 °F

Location of Cedar RapidsLocation

Historic Weather in Cedar Rapids — Graph

°F

Cedar Rapids temperature yesterday

Maximum temperature yesterday: 80 °F (at 2:52 PM)
Minimum temperature yesterday: 58 °F (at 4:52 AM)
Average temperature yesterday: 69 °F

Past Weeks' High & Low Weather Summary

 TemperatureHumidityPressure
High87 °F (Jul 22, 12:04 PM)97% (Jul 27, 3:52 AM)30.19 "Hg (Jul 27, 3:52 AM)
Low52 °F (Jul 29, 3:52 AM)32% (Jul 19, 3:52 PM)29.79 "Hg (Jul 26, 5:52 AM)
Average70 °F72%30.01 "Hg
* Reported Jul 17 7:52 PM — Aug 1 7:52 PM, Cedar Rapids, Weather by CustomWeather, © 2014

Note: Actual official high and low records may vary slightly from our data, if they occured in-between our weather recording intervals... More about our weather records

Advertising

Cedar Rapids weather history for previous 24 hours

 ConditionsComfort  
Time TempWeatherWind HumidityBarometerVisibility
7:52 PM
Aug 1
76 °FLight rain. Scattered clouds.No wind77%30.05 "Hg10 mi
6:52 PM76 °FScattered clouds.3 mph80%30.04 "Hg10 mi
5:52 PM76 °FLight rain. Cloudy.6 mph69%30.04 "Hg10 mi
4:52 PM80 °FScattered clouds.No wind52%30.03 "Hg10 mi
3:52 PM79 °FScattered clouds.6 mph62%30.05 "Hg10 mi
2:52 PM81 °FSunny.3 mph51%30.06 "Hg10 mi
1:52 PM83 °FPassing clouds.6 mph46%30.06 "Hg10 mi
12:52 PM78 °FScattered clouds.3 mph58%30.07 "Hg10 mi
11:52 AM77 °FScattered clouds.5 mph58%30.07 "Hg10 mi
10:52 AM78 °FSunny.No wind60%30.08 "Hg9 mi
9:52 AM75 °FSunny.No wind66%30.07 "Hg10 mi
8:52 AM69 °FSunny.No wind87%30.07 "Hg8 mi
7:52 AM68 °FScattered clouds.No wind87%30.06 "Hg8 mi
6:52 AM59 °FFog.No wind96%30.06 "Hg5 mi
5:52 AM58 °FFog.3 mph97%30.05 "Hg6 mi
4:52 AM62 °FClear.No wind93%30.04 "Hg8 mi
3:52 AM61 °FPassing clouds.No wind97%30.03 "Hg8 mi
2:52 AM62 °FClear.No wind93%30.03 "Hg10 mi
1:52 AM62 °FPassing clouds.No wind93%30.03 "Hg9 mi
12:52 AM62 °FPassing clouds.3 mph93%30.03 "Hg9 mi
11:52 PM
Jul 31
63 °FClear.3 mph93%30.03 "Hg8 mi
10:52 PM64 °FClear.No wind94%30.03 "Hg8 mi
9:52 PM67 °FPassing clouds.3 mph85%30.03 "Hg8 mi
Weather by CustomWeather, © 2014

See weather overviewHow to use our weather pages